Weather reports worldwide

Advertisment
Trawscoed, United Kingdom (3503): temperature & dewpoint: 13.06.2018 00:00:00 - 19.06.2018 00:00:00 (BST)Trawscoed, United Kingdom (3503): temperature -20cm & temperature -100cm: 13.06.2018 00:00:00 - 19.06.2018 00:00:00 (BST)Trawscoed, United Kingdom (3503): wind speed & gusts: 13.06.2018 00:00:00 - 19.06.2018 00:00:00 (BST)Trawscoed, United Kingdom (3503): wind direction: 13.06.2018 00:00:00 - 19.06.2018 00:00:00 (BST)Trawscoed, United Kingdom (3503): reduced air pressure: 13.06.2018 00:00:00 - 19.06.2018 00:00:00 (BST)Trawscoed, United Kingdom (3503): visibility: 13.06.2018 00:00:00 - 19.06.2018 00:00:00 (BST)Trawscoed, United Kingdom (3503): precipitation: 13.06.2018 00:00:00 - 19.06.2018 00:00:00 (BST)
Date & Time tt [°C] td [°C] tt -20cm [°C] tt -100cm [°C] ff [km/h] ff [kn] fx [km/h] fx [kn] dd ppp [hPa] vv [km] rr [mm]
19.06.2018 00:00:00 - - - - - - - - - - - -
18.06.2018 23:00:00 16,0 14,0 - - 13 7 - - WSW 1019,8 17 0,0
18.06.2018 22:00:00 16,0 14,2 - - 15 8 - - WSW 1019,6 15 0,0
18.06.2018 21:00:00 16,5 14,5 - - 9 5 - - WSW 1018,9 21 0,0
18.06.2018 20:00:00 17,4 14,8 - - 15 8 - - SW 1018,3 35 0,0
18.06.2018 19:00:00 17,5 15,2 - - 9 5 - - W 1017,9 25 0,0
18.06.2018 18:00:00 18,0 15,3 - - 16 9 - - SW 1017,7 35 0,0
18.06.2018 17:00:00 17,7 15,1 - - 11 6 - - W 1017,8 29 0,0
18.06.2018 16:00:00 17,0 14,7 - - 11 6 - - SSW 1018,2 30 0,0
18.06.2018 15:00:00 17,1 14,5 - - 11 6 - - S 1018,3 40 0,0
18.06.2018 14:00:00 16,3 13,5 - - 13 7 - - S 1018,6 16 0,0
18.06.2018 13:00:00 15,6 12,9 - - 9 5 - - S 1019,0 21 0,0
18.06.2018 12:00:00 14,9 11,8 - - 9 5 - - SW 1019,3 7 0,0
18.06.2018 11:00:00 14,4 11,4 - - 11 6 - - W 1019,4 12 0,0
18.06.2018 10:00:00 14,9 10,8 17,2 15,4 13 7 - - W 1019,2 12 0,0
18.06.2018 09:00:00 13,6 9,6 - - 11 6 - - WSW 1019,1 19 0,0
18.06.2018 08:00:00 13,7 10,2 - - 9 5 - - W 1018,5 19 0,0
18.06.2018 07:00:00 13,2 10,1 - - 11 6 - - W 1017,9 29 0,0
18.06.2018 06:00:00 13,2 10,6 - - 11 6 - - WSW 1017,6 29 0,0
18.06.2018 05:00:00 13,3 11,1 - - 11 6 - - WSW 1016,9 23 0,0
18.06.2018 04:00:00 14,1 12,3 - - 8 4 - - W 1016,3 13 0,0
18.06.2018 03:00:00 14,3 11,9 - - 5 3 - - SW 1016,1 28 0,0
18.06.2018 02:00:00 14,4 12,5 - - 11 6 - - WSW 1016,2 16 0,0
18.06.2018 01:00:00 14,0 12,3 - - 8 4 - - SSW 1016,0 22 0,0
18.06.2018 00:00:00 14,4 12,5 - - 8 4 - - S 1015,5 30 0,0
17.06.2018 23:00:00 15,1 12,6 - - 11 6 - - SW 1015,2 50 0,0
17.06.2018 22:00:00 15,7 12,6 - - 11 6 - - SW 1014,7 50 0,0
17.06.2018 21:00:00 16,3 13,3 - - 8 4 - - WSW 1014,2 45 0,0
17.06.2018 20:00:00 16,4 13,8 - - 8 4 - - SW 1013,9 45 0,0
17.06.2018 19:00:00 15,8 13,9 - - 8 4 - - W 1013,8 23 0,0
17.06.2018 18:00:00 15,7 14,6 - - 9 5 - - WSW 1013,3 14 0,4
17.06.2018 17:00:00 16,5 14,8 - - 9 5 - - SSW 1013,0 5 0,0
17.06.2018 16:00:00 16,3 14,1 - - 9 5 - - S 1012,7 12 0,0
17.06.2018 15:00:00 16,3 13,6 - - 15 8 - - S 1013,2 35 0,0
17.06.2018 14:00:00 16,1 13,2 - - 16 9 - - S 1012,9 40 0,0
17.06.2018 13:00:00 15,4 12,6 - - 18 10 - - S 1013,1 7 0,0
17.06.2018 12:00:00 14,8 12,4 - - 13 7 - - S 1013,6 7 0,0
17.06.2018 11:00:00 13,8 11,8 - - 9 5 - - S 1014,1 12 0,0
17.06.2018 10:00:00 13,2 10,9 17,5 15,4 8 4 - - S 1014,5 11 0,0
17.06.2018 09:00:00 13,6 10,2 - - 9 5 - - S 1014,6 23 0,0
17.06.2018 08:00:00 13,5 10,1 - - 13 7 - - SW 1014,7 35 0,0
17.06.2018 07:00:00 12,7 10,4 - - 8 4 - - SSW 1014,5 25 0,0
17.06.2018 06:00:00 12,1 9,4 - - 4 2 - - SSW 1014,3 24 0,0
17.06.2018 05:00:00 12,3 9,4 - - 5 3 - - SSW 1014,2 25 0,0
17.06.2018 04:00:00 12,5 9,8 - - 5 3 - - SW 1014,0 25 0,0
17.06.2018 03:00:00 12,8 9,8 - - 8 4 - - WSW 1014,1 24 0,0
17.06.2018 02:00:00 13,0 10,2 - - 11 6 - - WSW 1014,1 16 0,0
17.06.2018 01:00:00 13,3 10,2 - - 11 6 - - WSW 1014,0 20 0,0
17.06.2018 00:00:00 13,5 10,4 - - 13 7 - - WSW 1013,8 19 0,0
16.06.2018 23:00:00 13,5 10,3 - - 5 3 - - WSW 1013,7 23 0,0
16.06.2018 22:00:00 13,7 10,2 - - 9 5 - - WSW 1013,4 30 0,0
16.06.2018 21:00:00 13,9 10,1 - - 11 6 - - WSW 1013,1 20 0,0
16.06.2018 20:00:00 14,2 10,1 - - 15 8 - - WSW 1012,8 19 0,0
16.06.2018 19:00:00 14,8 10,3 - - 16 9 - - WSW 1012,5 26 0,0
16.06.2018 18:00:00 15,0 9,5 - - 22 12 - - W 1012,6 29 0,0
16.06.2018 17:00:00 16,1 9,6 - - 18 10 - - W 1012,4 30 0,0
16.06.2018 16:00:00 14,5 9,8 - - 18 10 - - WSW 1012,3 23 0,0
16.06.2018 15:00:00 15,5 12,9 - - 18 10 48 26 W 1011,4 30 0,0
16.06.2018 14:00:00 17,1 13,2 - - 18 10 - - SSW 1010,3 5 0,0
16.06.2018 13:00:00 17,5 14,0 - - 15 8 - - S 1010,3 40 0,0
16.06.2018 12:00:00 16,1 12,7 - - 16 9 - - S 1010,7 30 0,0
16.06.2018 11:00:00 15,2 11,6 - - 13 7 - - S 1010,9 30 0,0
16.06.2018 10:00:00 14,6 11,7 17,7 15,4 16 9 - - S 1011,1 25 0,0
16.06.2018 09:00:00 13,0 11,2 - - 11 6 - - S 1011,7 35 0,0
16.06.2018 08:00:00 12,1 10,8 - - 9 5 - - SSE 1012,0 27 0,6
16.06.2018 07:00:00 12,0 10,5 - - 9 5 - - S 1012,3 10 0,6
16.06.2018 06:00:00 11,9 10,3 - - 8 4 - - SSE 1012,3 10 0,0
16.06.2018 05:00:00 11,9 9,9 - - 9 5 - - SSE 1012,7 19 0,0
16.06.2018 04:00:00 11,8 9,6 - - 11 6 - - SSE 1013,2 25 0,0
16.06.2018 03:00:00 11,3 9,3 - - 4 2 - - SSE 1013,9 40 0,0
16.06.2018 02:00:00 11,8 9,4 - - 5 3 - - S 1014,6 40 0,0
16.06.2018 01:00:00 10,7 8,9 - - 0 0 - - N 1015,2 50 0,0
16.06.2018 00:00:00 10,0 7,9 - - 2 1 - - W 1015,2 40 0,0
15.06.2018 23:00:00 11,8 8,8 - - 4 2 - - S 1015,5 40 0,0
15.06.2018 22:00:00 12,4 9,0 - - 4 2 - - SSE 1015,7 45 0,0
15.06.2018 21:00:00 13,6 8,1 - - 9 5 - - WSW 1015,8 35 0,0
15.06.2018 20:00:00 14,0 8,2 - - 11 6 - - W 1015,9 45 0,0
15.06.2018 19:00:00 14,7 8,4 - - 15 8 - - W 1016,0 35 0,0
15.06.2018 18:00:00 15,1 7,4 - - 15 8 - - W 1016,2 35 0,0
15.06.2018 17:00:00 16,9 6,0 - - 15 8 - - W 1016,4 50 0,0
15.06.2018 16:00:00 15,7 7,5 - - 15 8 - - W 1016,9 26 0,0
15.06.2018 15:00:00 15,6 7,1 - - 16 9 - - W 1017,2 35 0,0
15.06.2018 14:00:00 16,4 6,7 - - 18 10 - - W 1017,0 40 0,0
15.06.2018 13:00:00 15,6 8,9 - - 15 8 - - W 1017,2 45 0,0
15.06.2018 12:00:00 14,9 8,0 - - 15 8 - - W 1017,1 23 0,0
15.06.2018 11:00:00 15,0 10,2 - - 15 8 - - W 1016,8 19 0,0
15.06.2018 10:00:00 14,0 10,3 17,9 15,4 13 7 - - W 1016,9 19 0,0
15.06.2018 09:00:00 13,3 9,9 - - 11 6 - - W 1016,8 16 0,0
15.06.2018 08:00:00 13,0 10,4 - - 8 4 - - SE 1016,6 9 0,0
15.06.2018 07:00:00 10,9 9,5 - - 13 7 - - SE 1016,5 14 0,0
15.06.2018 06:00:00 10,9 9,7 - - 5 3 - - E 1016,7 13 0,0
15.06.2018 05:00:00 10,1 9,3 - - 5 3 - - SSE 1016,4 15 0,0
15.06.2018 04:00:00 8,6 8,2 - - 2 1 - - E 1016,1 13 0,0
15.06.2018 03:00:00 8,4 8,0 - - 2 1 - - NNE 1016,3 15 0,0
15.06.2018 02:00:00 7,4 6,4 - - 0 0 - - N 1016,4 14 0,0
15.06.2018 01:00:00 9,3 7,2 - - 4 2 - - ESE 1016,3 17 0,0
15.06.2018 00:00:00 11,3 8,7 - - 8 4 - - E 1016,0 16 0,0
14.06.2018 23:00:00 13,2 9,4 - - 9 5 - - SW 1016,2 16 0,0
14.06.2018 22:00:00 14,2 9,4 - - 15 8 - - SW 1016,0 18 0,0
14.06.2018 21:00:00 14,0 9,4 - - 15 8 - - WSW 1015,6 18 0,0
14.06.2018 20:00:00 15,3 9,6 - - 18 10 - - W 1015,0 18 0,0
14.06.2018 19:00:00 16,7 8,5 - - 21 11 - - W 1014,4 20 0,0
14.06.2018 18:00:00 17,4 8,8 - - 18 10 - - W 1014,2 22 0,0
14.06.2018 17:00:00 17,7 8,3 - - 24 13 - - WSW 1013,8 20 0,0
14.06.2018 16:00:00 17,8 8,7 - - 24 13 - - W 1013,5 27 0,0
14.06.2018 15:00:00 17,9 9,4 - - 22 12 - - W 1012,7 29 0,0
14.06.2018 14:00:00 17,7 10,5 - - 22 12 - - W 1012,1 21 0,0
14.06.2018 13:00:00 17,4 11,0 - - 22 12 50 27 W 1011,3 15 0,0
14.06.2018 12:00:00 16,1 9,1 - - 26 14 46 25 W 1010,7 24 0,0
14.06.2018 11:00:00 15,3 10,1 - - 26 14 52 28 W 1009,7 17 0,0
14.06.2018 10:00:00 15,0 10,3 18,0 15,2 24 13 61 33 W 1008,7 15 0,0
14.06.2018 09:00:00 14,6 10,7 - - 21 11 50 27 WSW 1007,6 9 0,0
14.06.2018 08:00:00 14,2 12,0 - - 22 12 55 30 WSW 1006,7 8 0,0
14.06.2018 07:00:00 15,9 13,0 - - 21 11 - - SW 1005,0 30 0,2
14.06.2018 06:00:00 15,2 13,8 - - 16 9 - - S 1004,9 8 0,2
14.06.2018 05:00:00 14,6 13,4 - - 21 11 48 26 S 1005,3 4,6 0,2
14.06.2018 04:00:00 14,4 12,9 - - 24 13 55 30 S 1005,8 6 0,0
14.06.2018 03:00:00 14,3 12,4 - - 24 13 52 28 S 1006,3 14 0,0
14.06.2018 02:00:00 14,6 12,2 - - 21 11 46 25 S 1008,4 30 0,0
14.06.2018 01:00:00 14,5 12,3 - - 22 12 52 28 S 1009,1 30 0,0
14.06.2018 00:00:00 14,3 12,5 - - 18 10 - - SSE 1010,0 50 0,2
13.06.2018 23:00:00 14,3 12,3 - - 11 6 - - S 1011,4 28 0,0
13.06.2018 22:00:00 14,2 12,3 - - 13 7 - - S 1012,6 13 0,0
13.06.2018 21:00:00 15,0 11,5 - - 13 7 - - SSW 1013,4 30 0,0
13.06.2018 20:00:00 15,5 11,4 - - 15 8 - - SSW 1013,7 40 0,0
13.06.2018 19:00:00 16,8 11,3 - - 16 9 - - S 1013,9 30 0,0
13.06.2018 18:00:00 17,6 11,3 - - 13 7 - - SSW 1014,5 21 0,0
13.06.2018 17:00:00 17,8 12,7 - - 11 6 - - W 1014,9 27 0,0
13.06.2018 16:00:00 17,0 12,7 - - 13 7 - - W 1015,6 20 0,0
13.06.2018 15:00:00 18,9 11,4 - - 16 9 - - W 1016,1 30 0,0
13.06.2018 14:00:00 19,6 11,5 - - 15 8 - - WNW 1016,1 30 0,0
13.06.2018 13:00:00 18,8 10,9 - - 11 6 - - NW 1016,8 30 0,0
13.06.2018 12:00:00 18,9 11,6 - - 9 5 - - W 1017,3 40 0,0
13.06.2018 11:00:00 18,2 10,7 - - 11 6 - - WNW 1018,1 30 0,0
13.06.2018 10:00:00 17,3 11,2 18,0 15,2 9 5 - - NW 1018,4 26 0,0
13.06.2018 09:00:00 16,5 13,0 - - 4 2 - - ENE 1018,5 22 0,0
13.06.2018 08:00:00 13,6 12,6 - - 2 1 - - NNE 1018,8 13 0,0
13.06.2018 07:00:00 12,2 12,1 - - 2 1 - - E 1018,9 11 0,0
13.06.2018 06:00:00 10,9 10,6 - - 0 0 - - N 1019,0 5 0,0
13.06.2018 05:00:00 11,4 11,3 - - 2 1 - - S 1019,2 4,9 0,0
13.06.2018 04:00:00 10,9 10,7 - - 2 1 - - WNW 1019,4 6 0,0
13.06.2018 03:00:00 10,8 10,6 - - 2 1 - - SW 1020,0 6 0,0
13.06.2018 02:00:00 9,5 9,1 - - 2 1 - - NNW 1020,1 5 0,0
13.06.2018 01:00:00 9,9 9,3 - - 2 1 - - WSW 1020,0 7 0,0
13.06.2018 00:00:00 11,1 10,3 - - 2 1 - - ESE 1020,0 8 0,0

tt = temperature
td = dewpoint
tt -20cm = temperature -20cm
tt -100cm = temperature -100cm
ff = wind speed
fx = gusts
dd = wind direction
ppp = reduced air pressure
vv = visibility
rr = precipitation

Next stations